WetterOnline ( https://www.wetteronline.de )

Wetter aktuell Neuburg

Aktuelles Wetter: Neuburg/Donau (380m)

6-stündlich | Neueste Meldungen
Ortszeit Temperatur Wetter
So, 03.03. 19:00 10.5° C leicht bewölkt
So, 03.03. 13:00 12.7° C leicht bewölkt
So, 03.03. 7:00 2.4° C Nebelschwaden
So, 03.03. 1:00 4.4° C leicht bewölkt
Sa, 02.03. 19:00 7.2° C leicht bewölkt
Sa, 02.03. 13:00 10.5° C wolkig
Sa, 02.03. 7:00 4.6° C Nebel (zunehmend)
Sa, 02.03. 1:00 5.9° C wolkig
Ortszeit Temperatur Wetter
So, 03.03. 20:00 9.0° C leicht bewölkt
So, 03.03. 19:00 10.5° C leicht bewölkt
So, 03.03. 18:00 12.8° C leicht bewölkt
So, 03.03. 17:00 15.5° C leicht bewölkt
So, 03.03. 16:00 16.6° C leicht bewölkt
So, 03.03. 15:00 15.2° C leicht bewölkt
So, 03.03. 14:00 14.8° C leicht bewölkt
Ortszeit Relative Feuchte Sichtweite
So, 03.03. 19:00 73% 60 km
So, 03.03. 13:00 64% 35 km
So, 03.03. 7:00 99% 1.6 km
So, 03.03. 1:00 97% 9 km
Sa, 02.03. 19:00 86% 10 km
Sa, 02.03. 13:00 71% 15 km
Sa, 02.03. 7:00 98% 0.5 km
Sa, 02.03. 1:00 98% 5.0 km
Ortszeit Relative Feuchte Sichtweite
So, 03.03. 20:00 77% 60 km
So, 03.03. 19:00 73% 60 km
So, 03.03. 18:00 65% 60 km
So, 03.03. 17:00 49% 60 km
So, 03.03. 16:00 47% 40 km
So, 03.03. 15:00 53% 40 km
So, 03.03. 14:00 57% 40 km
Ortszeit Niederschlagsmenge Niederschlagsart
So, 03.03. 19:00 0.0 l/m2 in 12 Std. -
So, 03.03. 13:00 keine Meldung -
So, 03.03. 7:00 0.0 l/m2 in 12 Std. -
So, 03.03. 1:00 keine Meldung -
Sa, 02.03. 19:00 0.0 l/m2 in 12 Std. -
Sa, 02.03. 13:00 keine Meldung -
Sa, 02.03. 7:00 2 l/m2 in 12 Std. -
Sa, 02.03. 1:00 keine Meldung -
Ortszeit Niederschlagsmenge Niederschlagsart
So, 03.03. 20:00 keine Meldung -
So, 03.03. 19:00 keine Meldung -
So, 03.03. 18:00 keine Meldung -
So, 03.03. 17:00 keine Meldung -
So, 03.03. 16:00 keine Meldung -
So, 03.03. 15:00 keine Meldung -
So, 03.03. 14:00 keine Meldung -
Ortszeit Stärke Spitze Richtung
km/h Bft. km/h Grad Sektor
So, 03.03. 19:00 11 2 - 40° NO
So, 03.03. 13:00 11 2 - 70° O
So, 03.03. 7:00 7 2 - 40° NO
So, 03.03. 1:00 4 1 - 40° NO
Sa, 02.03. 19:00 11 2 - 50° NO
Sa, 02.03. 13:00 14 3 - 90° O
Sa, 02.03. 7:00 4 1 - 10° N
Sa, 02.03. 1:00 4 1 - 130° SO
Ortszeit Stärke Spitze Richtung
km/h Bft. km/h Grad Sektor
So, 03.03. 20:00 11 2 - 60° NO
So, 03.03. 19:00 11 2 - 40° NO
So, 03.03. 18:00 11 2 - 40° NO
So, 03.03. 17:00 11 2 - 60° NO
So, 03.03. 16:00 14 3 - 60° NO
So, 03.03. 15:00 14 3 - 70° O
So, 03.03. 14:00 14 3 - 60° NO
Ortszeit Untergrenze Bedeckung Gattung
total tief tief mittel hoch
So, 03.03. 19:00 8400 m 6/8 0/8 - - Ci
So, 03.03. 13:00 7200 m 7/8 0/8 - - Ci
So, 03.03. 7:00 7200 m 6/8 0/8 - - Ci
So, 03.03. 1:00 8100 m 4/8 0/8 - - Ci
Sa, 02.03. 19:00 3000 m 6/8 1/8 - Ac Ci
Sa, 02.03. 13:00 540 m 7/8 4/8 Cu Ac Ci
Sa, 02.03. 7:00 3300 m 8/8 8/8 - As -
Sa, 02.03. 1:00 2400 m 8/8 7/8 - Ac -
Ortszeit Bedeckungsgrad in Achtel und Wolkenuntergrenze
So, 03.03. 20:00 5(8400m)
So, 03.03. 19:00 5(8400m) 3(9000m)
So, 03.03. 18:00 5(8400m) 5(9000m)
So, 03.03. 17:00 5(8400m)
So, 03.03. 16:00 5(8400m)
So, 03.03. 15:00 1(7500m) 6(8400m)
So, 03.03. 14:00 7(7500m)
Ortszeit Luftdruck NN (hPa) Tendenz (hPa in 3 Std.)
So, 03.03. 19:00 1000 + 0,5
So, 03.03. 13:00 1000 - 1,0
So, 03.03. 7:00 1002 + 0,1
So, 03.03. 1:00 1003 - 0,7
Sa, 02.03. 19:00 1005 - 0,4
Sa, 02.03. 13:00 1006 - 1,1
Sa, 02.03. 7:00 1008 + 0,7
Sa, 02.03. 1:00 1008 - 0,9
Ortszeit Luftdruck NN (hPa) Tendenz (hPa in 3 Std.)
So, 03.03. 20:00 1001 + 1,2
So, 03.03. 19:00 1000 + 0,5
So, 03.03. 18:00 999 - 0,1
So, 03.03. 17:00 998 - 0,7
So, 03.03. 16:00 998 - 0,9
So, 03.03. 15:00 999 - 1,4
So, 03.03. 14:00 999 - 1,2
Ortszeit Schneehöhe (cm)
So, 03.03. 19:00 0
So, 03.03. 13:00 -
So, 03.03. 7:00 0
So, 03.03. 1:00 -
Sa, 02.03. 19:00 0
Sa, 02.03. 13:00 -
Sa, 02.03. 7:00 0
Sa, 02.03. 1:00 -
Ortszeit Schneehöhe (cm)
So, 03.03. 20:00 -
So, 03.03. 19:00 0
So, 03.03. 18:00 -
So, 03.03. 17:00 -
So, 03.03. 16:00 -
So, 03.03. 15:00 -
So, 03.03. 14:00 -
Link zu dieser Seite / Seite empfehlen

Das Wetter in ...